Weather in Artezian

Russia / Republic of Kalmykia     44°56′48″N   46°40′11″E
temp.,
°C
wind,
m/s
gust,
m/s
humid.,
%
clouds,
%
prec.,
mm/h
press.,
hPa
HPBL,
m
6 march, sat
sat600:00+4ssw45830 0.0 101866
03:00+3s34840 0.0 101844
06:00+2s45780 0.0 101864
09:00+6s475911 0.0 1018241
12:00+11sse57432 0.0 1016378
15:00+12sse67454 0.0 1014334
18:00+7s236368 0.0 101266
21:00+8sse455184 0.0 101148
7 march, sun
sun700:00+8s4542100 0.0 100953
03:00+8wnw71457100 0.0 1012355
06:00+2nw121676100 0.0 1017915
09:00+1nw101371100 0.1 10221197
12:00+3nw9114082 0.1 10231499
15:00+3nw793640 0.1 10231454
18:00+2nw35420 0.0 1023492
21:00+1wsw23470 0.0 102344
8 march, mon
mon800:000w22480 0.0 102233
03:000ssw34440 0.0 102292
06:00−1sw47490 0.0 1021203
09:00+2sw57400 0.0 1021705
12:00+5sw55340 0.0 10191219
15:00+6sw343211 0.0 10171314
18:00+3sse685860 0.0 1016275
21:00+2s596377 0.0 1017222
9 march, tue
tue900:00+2ssw476686 0.0 1017161
03:00+1wsw346893 0.0 101778
06:00+1wsw346813 0.0 101682
09:00+4w345426 0.0 1017377
12:00+7w574255 0.0 10161450
15:00+9w683844 0.0 10151926
18:00+7w344786 0.0 101480
21:00+5nw486791 0.0 1016357
10 march, wed
wed1000:00+2nnw5772100 0.1 1020739
03:00+1nw4860100 0.1 1021981
06:00−1wnw367179 0.0 1023260
09:00+1wnw334554 0.0 1024776
12:00+3w343613 0.0 10241480
15:00+4wnw233457 0.0 10221924
18:00+3sse3343100 0.0 1022238
21:00+1sse4755100 0.0 1021345